DL8FX-6 Weather Reports


Display with metric or nautical units.
time (UTC)temp
F
wind
direction
speed
MPH
gust
MPH
rain 1hr
in
rain 24hr
in
rain mn
in
humidity
%
barometer
mb
20260506090048 53 0.0 0.0 0.06 0.48 0.48 99 1003.4
20260506085044 53 0.0 0.0 0.07 0.47 0.47 99 1003.4
20260506084040 53 0.0 0.0 0.07 0.46 0.46 99 1003.3
20260506083036 53 0.0 3.0 0.07 0.45 0.45 99 1003.3
20260506082032 53 0.0 0.0 0.08 0.44 0.44 99 1003.3
20260506081028 52 0.0 0.0 0.11 0.44 0.44 99 1003.2
20260506073112 52 0.0 0.0 0.07 0.38 0.38 99 1003.1
20260506072108 52 0.0 0.0 0.05 0.35 0.35 99 1003.0
20260506071104 52 0.0 0.0 0.04 0.33 0.33 99 1002.9
20260506062044 52 0.0 0.0 0.02 0.31 0.31 99 1002.6
20260506061040 52 0.0 0.0 0.01 0.30 0.30 99 1002.6
20260506051017 51 0.0 0.0 0.02 0.30 0.28 99 1002.9
20260506050114 51 0.0 0.0 0.04 0.30 0.28 99 1002.9
20260506045110 51 0.0 0.0 0.04 0.28 0.27 99 1003.1
20260506044106 51 0.0 1.0 0.02 0.27 0.26 99 1003.0
20260506043101 51 0.0 0.0 0.04 0.28 0.26 99 1003.2
20260506042057 51 0.0 0.0 0.05 0.31 0.26 99 1003.2
20260506041113 51 0.0 0.0 0.07 0.40 0.26 99 1003.2
20260506040049 51 0.0 0.0 0.08 0.40 0.25 99 1003.3
20260506035046 51 0.0 0.0 0.09 0.39 0.24 99 1003.2
20260506034041 51 0.0 0.0 0.11 0.40 0.24 99 1003.3
20260506033037 51 0.0 0.0 0.11 0.39 0.22 99 1003.4
20260506032033 51 0.0 0.0 0.11 0.38 0.21 99 1003.6
20260506031030 51 0.0 0.0 0.11 0.35 0.19 98 1003.7
20260506030026 51 0.0 0.0 0.09 0.33 0.17 98 1003.9
20260506025021 51 0.0 0.0 0.08 0.31 0.14 98 1003.9
20260506024017 51 0.0 0.0 0.08 0.30 0.13 98 1004.0
20260506023113 51 0.0 0.0 0.08 0.28 0.12 97 1004.1
20260506022109 51 119 0.0 2.0 0.08 0.27 0.11 97 1004.2
20260506021105 51 0.0 0.0 0.06 0.25 0.08 97 1004.2
20260506015058 51 0.0 0.0 0.05 0.22 0.06 97 1004.2
20260506014054 51 0.0 0.0 0.04 0.21 0.05 96 1004.3
20260506013050 52 0.0 2.0 0.04 0.20 0.04 96 1004.4
20260506012046 52 0.0 0.0 0.02 0.19 0.02 96 1004.5
20260506011042 52 0.0 0.0 0.02 0.19 0.02 96 1004.7
20260506010039 52 0.0 0.0 0.01 0.18 0.01 96 1004.9
20260506005035 52 0.0 0.0 0.01 0.18 0.01 96 1004.8
20260506004031 52 0.0 0.0 0.01 0.18 0.01 95 1004.9
20260506003047 52 0.0 1.0 0.00 0.17 0.00 95 1005.0
20260506002022 52 0.0 0.0 0.00 0.17 0.00 95 1005.1
20260506001039 52 0.0 1.0 0.00 0.17 0.00 95 1005.2
20260506000115 52 0.0 0.0 0.00 0.17 0.00 94 1005.4
20260505235111 53 0.0 2.0 0.00 0.17 0.00 94 1005.3
20260505234107 53 0.0 0.0 0.00 0.17 0.00 94 1005.4
20260505233103 53 0.0 0.0 0.00 0.17 0.00 94 1005.4
20260505232101 53 45 1.0 5.0 0.00 0.17 0.00 94 1005.4
20260505231056 53 0.0 0.0 0.00 0.17 0.00 94 1005.6
20260505230112 53 0.0 0.0 0.00 0.17 0.00 94 1005.7
20260505225048 53 0.0 0.0 0.00 0.17 0.00 94 1005.7
20260505224044 53 0.0 0.0 0.00 0.17 0.00 93 1005.8
20260505223040 54 0.0 0.0 0.00 0.17 0.00 93 1005.9
20260505222056 54 0.0 0.0 0.00 0.17 0.00 93 1005.8
20260505221032 54 0.0 0.0 0.00 0.17 0.00 93 1005.8
20260505220028 54 0.0 0.0 0.00 0.17 0.00 93 1005.8
20260505215045 54 0.0 0.0 0.00 0.17 0.17 93 1005.9
20260505214041 55 0.0 0.0 0.00 0.17 0.17 90 1005.9
20260505213017 55 0.0 0.0 0.00 0.17 0.17 90 1006.0
20260505212116 55 0.0 0.0 0.00 0.17 0.17 90 1006.1
20260505211128 55 0.0 0.0 0.00 0.17 0.17 90 1006.1
20260505210104 55 0.0 0.0 0.00 0.17 0.17 90 1006.2
20260505205100 55 0.0 0.0 0.00 0.17 0.17 90 1006.2
20260505204136 55 0.0 1.0 0.00 0.17 0.17 89 1006.1
20260505203113 55 0.0 0.0 0.00 0.17 0.17 89 1006.1
20260505202048 55 0.0 0.0 0.00 0.17 0.17 88 1006.1
20260505201045 55 0.0 0.0 0.00 0.17 0.17 88 1006.1
20260505200041 56 0.0 0.0 0.00 0.17 0.17 88 1006.1
20260505195118 56 0.0 1.0 0.00 0.17 0.17 87 1006.1
20260505194033 56 0.0 0.0 0.00 0.17 0.17 87 1006.0
20260505193028 56 0.0 0.0 0.00 0.17 0.17 87 1006.0
20260505192024 57 0.0 0.0 0.00 0.17 0.17 86 1006.0
20260505191020 57 0.0 0.0 0.00 0.17 0.17 85 1006.0
20260505190017 57 0.0 0.0 0.00 0.17 0.17 85 1006.0
20260505185113 58 0.0 0.0 0.00 0.17 0.17 85 1005.8
20260505184129 58 0.0 0.0 0.00 0.17 0.17 84 1005.8
20260505183105 58 0.0 0.0 0.00 0.17 0.17 83 1005.8
20260505182102 59 0.0 0.0 0.00 0.17 0.17 82 1005.8
20260505181058 60 0.0 0.0 0.00 0.17 0.17 82 1005.9
20260505180054 60 0.0 0.0 0.00 0.17 0.17 82 1005.9
20260505175050 61 0.0 0.0 0.00 0.17 0.17 81 1005.7
20260505174046 61 0.0 0.0 0.00 0.17 0.17 80 1005.7
20260505173042 62 0.0 0.0 0.00 0.17 0.17 79 1005.8
20260505172038 62 0.0 0.0 0.00 0.17 0.17 77 1005.8
20260505171114 64 0.0 2.0 0.00 0.17 0.17 74 1005.7
20260505170030 64 0.0 1.0 0.00 0.17 0.17 73 1005.8
20260505165026 64 0.0 1.0 0.00 0.17 0.17 74 1005.8
20260505164023 64 0.0 0.0 0.00 0.17 0.17 74 1005.7
20260505163019 64 0.0 0.0 0.00 0.17 0.17 75 1005.8
20260505162115 63 0.0 0.0 0.00 0.17 0.17 78 1005.9
20260505161111 64 0.0 0.0 0.00 0.17 0.17 73 1006.0
20260505160107 64 0.0 0.0 0.00 0.17 0.17 72 1006.1
20260505153055 67 0.0 0.0 0.00 0.17 0.17 70 1006.1
20260505152051 68 0.0 0.0 0.00 0.17 0.17 68 1006.1
20260505151047 68 0.0 0.0 0.00 0.17 0.17 67 1006.0
20260505124048 69 0.0 0.0 0.00 0.17 0.17 71 1006.8
20260505123043 68 0.0 0.0 0.00 0.17 0.17 71 1006.8
20260505122039 68 0.0 0.0 0.00 0.17 0.17 70 1007.0
20260505121035 68 0.0 0.0 0.00 0.17 0.17 71 1007.0
20260505120031 67 0.0 0.0 0.00 0.17 0.17 72 1007.0
20260505115047 67 0.0 0.0 0.00 0.17 0.17 73 1006.9
20260505114023 67 0.0 0.0 0.00 0.17 0.17 72 1006.9
20260505113119 67 0.0 0.0 0.00 0.17 0.17 73 1006.9
20260505112115 67 0.0 0.0 0.00 0.17 0.17 74 1007.1
20260505111111 67 0.0 0.0 0.00 0.17 0.17 75 1007.2
20260505110107 66 0.0 0.0 0.00 0.17 0.17 75 1007.2
20260505102049 64 0.0 0.0 0.00 0.17 0.17 73 1007.5
20260505101046 64 0.0 0.0 0.00 0.17 0.17 75 1007.4
20260505100042 63 0.0 0.0 0.00 0.17 0.17 79 1007.4
20260505095037 63 0.0 0.0 0.00 0.17 0.17 77 1007.5
20260505094053 63 0.0 1.0 0.00 0.17 0.17 78 1007.4
20260505093029 63 0.0 0.0 0.00 0.17 0.17 78 1007.5
20260505092025 62 45 0.0 3.0 0.00 0.17 0.17 80 1007.5
20260505091041 62 0.0 0.0 0.00 0.17 0.17 81 1007.5